SCP
0 0 0 0 0 0 0 0 0 0 0 0 0 0 0 0 0 0 0 0 0 0 0 0 0 0 0 0 0 0 0 0 0 0 0 0 0 0 0 0 0 0 0
0 0 0 0 0 0 0 0 0 0 0 0 0 0 0 0 0 0 0 0 0 0 0 0 0 0 0 0 0 0 0 0 0 0 0 0 0 0 0 0 0 0 0
0 0 0 0 0 0 0 0 0 0 0 0 0 0 0 0 0 0 0 0 0 0 0 0 0 0 0 0 0 0 0 0 0 0 0 0 0 0 0 0 0 0 0
0 0 0 0 0 0 0 0 0 0 0 0 0 0 0 0 0 0 0 0 0 0 0 0 0 0 0 0 0 0 0 0 0 0 0 0 0 0 0 0 0 0 0
0 0 0 0 0 0 0 0 0 0 0 0 0 0 0 0 0 0 0 0 0 0 0 0 0 0 0 0 0 0 0 0 0 0 0 0 0 0 0 0 0 0 0
0 0 0 0 0 0 0 0 0 0 0 0 0 0 0 0 0 0 0 0 0 0 0 0 0 0 0 0 0 0 0 0 0 0 0 0 0 0 0 0 0 0 0
0 0 0 0 0 0 0 0 0 0 0 0 0 0 0 0 0 0 0 0 0 0 0 0 0 0 0 0 0 0 0 0 0 0 0 0 0 0 0 0 0 0 0
0 0 0 0 0 0 0 0 0 0 0 0 0 0 0 0 0 0 0 0 0 0 0 0 0 0 0 0 0 0 0 0 0 0 0 0 0 0 0 0 0 0 0
0 0 0 0 0 0 0 0 0 0 0 0 0 0 0 0 0 0 0 0 0 0 0 0 0 0 0 0 0 0 0 0 0 0 0 0 0 0 0 0 0 0 0
0 0 0 0 0 0 0 0 0 0 0 0 0 0 0 0 0 0 0 0 0 0 0 0 0 0 0 0 0 0 0 0 0 0 0 0 0 0 0 0 0 0 0
0 0 0 0 0 0 0 0 0 0 0 0 0 0 0 0 0 0 0 0 0 0 0 0 0 0 0 0 0 0 0 0 0 0 0 0 0 0 0 0 0 0 0
0 0 0 0 0 0 0 0 0 0 0 0 0 0 0 0 0 0 0 0 0 0 0 0 0 0 0 0 0 0 0 0 0 0 0 0 0 0 0 0 0 0 0
0 0 0 0 0 0 0 0 0 0 0 0 0 0 0 0 0 0 0 0 0 0 0 0 0 0 0 0 0 0 0 0 0 0 0 0 0 0 0 0 0 0 0
0 0 0 0 0 0 0 0 0 0 0 0 0 0 0 0 0 0 0 0 0 0 0 0 0 0 0 0 0 0 0 0 0 0 0 0 0 0 0 0 0 0 0
0 0 0 0 0 0 0 0 0 0 0 0 0 0 0 0 0 0 0 0 0 0 0 0 0 0 0 0 0 0 0 0 0 0 0 0 0 0 0 0 0 0 0
0 0 0 0 0 0 0 0 0 0 0 0 0 0 0 0 0 0 0 0 0 0 0 0 0 0 0 0 0 0 0 0 0 0 0 0 0 0 0 0 0 0 0
0 0 0 0 0 0 0 0 0 0 0 0 0 0 0 0 0 0 0 0 0 0 0 0 0 0 0 0 0 0 0 0 0 0 0 0 0 0 0 0 0 0 0
0 0 0 0 0 0 0 0 0 0 0 0 0 0 0 0 0 0 0 0 0 0 0 0 0 0 0 0 0 0 0 0 0 0 0 0 0 0 0 0 0 0 0
0 0 0 0 0 0 0 0 0 0 0 0 0 0 0 0 0 0 0 0 0 0 0 0 0 0 0 0 0 0 0 0 0 0 0 0 0 0 0 0 0 0 0
0 0 0 0 0 0 0 0 0 0 0 0 0 0 0 0 0 0 0 0 0 0 0 0 0 0 0 0 0 0 0 0 0 0 0 0 0 0 0 0 0 0 0
0 0 0 0 0 0 0 0 0 0 0 0 0 0 0 0 0 0 0 0 0 0 0 0 0 0 0 0 0 0 0 0 0 0 0 0 0 0 0 0 0 0 0
0 0 0 0 0 0 0 0 0 0 0 0 0 0 0 0 0 0 0 0 0 0 0 0 0 0 0 0 0 0 0 0 0 0 0 0 0 0 0 0 0 0 0
0 0 0 0 0 0 0 0 0 0 0 0 0 0 0 0 0 0 0 0 0 0 0 0 0 0 0 0 0 0 0 0 0 0 0 0 0 0 0 0 0 0 0
0 0 0 0 0 0 0 0 0 0 0 0 0 0 0 0 0 0 0 0 0 0 0 0 0 0 0 0 0 0 0 0 0 0 0 0 0 0 0 0 0 0 0
0 0 0 0 0 0 0 0 0 0 0 0 0 0 0 0 0 0 0 0 0 0 0 0 0 0 0 0 0 0 0 0 0 0 0 0 0 0 0 0 0 0 0
0 0 0 0 0 0 0 0 0 0 0 0 0 0 0 0 0 0 0 0 0 0 0 0 0 0 0 0 0 0 0 0 0 0 0 0 0 0 0 0 0 0 0
Wind_Speed
4 4 5 5 6 5 5 5 5 4 4 3 3 2 2 1 1 1 2 3 3 3 3 3 3 3 3 3 3 2 2 1 1 2 2 2 2 1 0 1 1 2 2
3 5 5 5 6 6 6 5 5 5 4 3 3 2 2 1 1 1 1 2 3 4 4 4 3 3 3 3 3 3 2 1 1 2 2 1 2 2 1 0 1 1 1
5 5 5 5 5 6 7 6 6 5 5 4 3 3 3 2 1 0 1 1 3 3 3 4 4 3 3 3 3 3 4 2 1 1 3 2 2 1 2 1 0 0 1
4 4 5 5 6 6 5 5 5 5 4 5 5 5 4 3 3 2 1 1 1 2 3 4 4 4 3 3 3 3 3 3 2 1 0 1 2 2 0 1 1 1 1
5 5 5 5 5 4 4 4 4 4 4 5 5 5 3 2 2 2 2 1 1 2 3 4 4 4 3 4 3 3 3 3 3 3 2 1 1 1 2 1 1 1 1
4 4 4 4 4 4 4 4 5 4 4 4 4 5 5 4 3 2 2 1 1 1 2 3 3 3 3 4 3 3 4 3 3 3 2 3 2 2 2 2 1 1 1
4 4 4 4 4 5 4 5 5 5 4 5 5 5 5 5 5 4 3 2 2 1 2 2 3 3 3 3 3 3 3 3 3 3 2 2 2 2 3 3 2 1 1
4 4 4 4 4 4 4 4 5 5 5 5 5 5 4 3 3 4 3 3 3 2 2 3 3 3 3 3 3 3 3 3 3 4 3 2 2 3 3 3 3 1 1
4 4 3 4 4 4 4 4 5 4 4 4 4 3 4 4 4 3 3 2 2 2 3 4 3 3 3 4 4 3 3 3 3 3 3 3 2 2 3 3 3 3 2
3 3 3 3 3 3 2 2 3 4 4 3 3 3 3 4 3 3 3 3 3 3 3 3 3 3 4 4 4 3 3 3 3 3 3 3 2 2 2 3 2 3 3
5 4 3 3 3 2 2 3 2 2 2 3 2 2 2 2 3 3 4 4 3 3 4 4 4 4 4 4 4 4 4 4 4 3 4 4 3 3 2 2 3 3 3
4 3 3 2 2 3 3 3 3 3 2 2 2 2 2 2 2 3 3 3 3 4 4 4 4 5 4 4 5 5 5 5 5 5 4 4 3 4 3 3 3 3 3
3 2 3 3 3 3 3 3 3 3 2 2 2 2 2 2 2 2 2 2 3 3 3 4 4 4 4 4 5 5 5 6 6 6 6 5 5 4 3 4 3 3 3
3 3 3 3 3 3 3 3 3 3 3 2 2 2 2 2 2 2 2 2 2 2 2 3 4 4 4 4 4 4 5 5 5 6 6 6 6 6 5 4 4 4 3
3 3 3 2 2 2 2 2 2 2 2 3 2 2 2 2 2 2 1 1 2 3 2 2 2 3 3 4 5 5 5 5 5 5 5 6 7 7 6 5 5 5 4
4 3 2 3 3 3 3 3 3 2 2 2 2 2 1 2 2 2 1 1 1 2 2 2 3 3 3 4 5 5 5 5 5 4 4 4 6 7 8 8 8 7 6
3 3 3 3 3 4 4 4 3 2 3 2 2 2 2 2 2 1 1 1 2 2 2 3 3 3 4 4 5 6 4 4 5 5 4 4 4 5 5 5 6 7 9
2 2 2 2 2 2 2 2 3 3 3 2 2 2 2 1 1 1 1 2 2 2 2 3 3 3 4 4 5 5 4 4 4 5 5 5 4 5 5 4 4 4 5
2 2 1 2 2 2 3 3 2 2 2 2 2 2 2 2 1 2 2 2 2 2 3 3 3 4 4 4 4 3 3 3 4 4 4 5 5 6 6 4 4 4 4
1 2 2 3 3 2 3 4 3 2 1 1 1 1 2 2 2 2 2 2 2 2 2 3 3 4 4 4 4 4 2 2 3 3 3 6 6 6 7 6 5 5 5
2 2 3 3 2 2 3 3 2 1 1 1 0 0 1 1 2 1 1 1 1 1 1 2 2 2 3 3 4 4 3 3 3 3 3 3 6 7 8 7 6 7 5
2 2 2 2 1 2 3 2 1 1 0 1 1 0 0 0 0 0 1 1 1 1 1 1 2 1 1 2 3 3 4 3 3 3 3 3 6 7 7 6 6 6 4
1 2 2 2 2 1 2 1 1 0 1 1 1 0 1 0 0 0 0 1 0 1 1 1 2 2 1 1 2 3 3 3 3 3 4 4 5 5 5 6 6 4 3
1 1 2 2 1 1 0 1 1 1 2 1 1 0 0 1 1 0 0 0 1 1 1 1 2 2 2 2 1 1 2 2 2 2 2 3 3 3 3 3 3 3 3
1 1 1 1 1 2 1 1 0 1 1 1 1 0 0 0 0 1 1 2 2 3 3 3 2 2 3 4 3 2 2 2 2 1 1 1 1 1 2 2 2 2 3
1 1 1 1 0 1 1 1 0 1 2 1 0 0 0 1 1 1 2 2 3 3 4 5 4 3 4 4 4 3 3 3 2 1 1 2 2 3 3 3 3 3 3
Wind_Direction
195 176 176 168 155 156 160 167 168 166 154 144 144 147 163 155 149 167 176 168 163 164 156 151 145 142 143 147 136 121 107 82 93 88 37 5 10 18 296 220 197 203 201
177 176 174 167 163 168 168 169 174 167 163 157 150 145 136 144 157 165 160 171 169 171 168 159 159 154 146 139 136 131 124 107 109 121 102 16 349 347 349 344 188 199 182
178 178 172 169 167 174 178 180 178 164 158 148 126 111 93 74 72 149 187 193 178 176 170 167 162 157 152 159 161 151 144 150 138 123 141 152 211 296 332 329 355 112 188
169 172 167 168 176 181 178 172 167 161 160 150 151 156 161 172 196 193 190 197 181 172 170 166 161 158 157 162 172 160 156 150 160 150 112 155 158 161 307 338 331 323 250
168 169 172 171 167 168 169 165 159 159 158 156 161 162 172 184 172 164 168 187 184 160 158 156 158 165 166 169 168 160 162 160 163 165 158 137 102 140 162 230 305 330 280
157 150 145 139 142 149 162 161 158 165 163 162 164 173 183 178 174 186 184 187 179 164 159 158 162 165 165 169 173 169 167 169 166 168 168 164 163 177 169 187 223 263 288
145 142 143 152 153 160 171 164 165 175 172 171 176 188 195 187 191 195 192 189 190 195 190 169 168 168 169 164 160 163 172 176 176 184 191 188 187 170 160 163 187 227 299
142 148 164 169 168 170 173 169 173 179 177 181 189 192 194 197 204 199 190 192 198 203 187 174 176 176 172 170 165 167 182 181 190 196 193 190 194 183 171 168 162 173 274
153 158 162 172 177 180 181 182 180 181 184 189 186 190 197 199 202 196 183 183 195 199 188 182 182 185 183 180 175 185 193 186 195 197 193 192 197 191 189 176 173 173 204
162 162 165 181 187 183 171 168 174 182 186 187 188 191 200 201 193 178 188 195 201 202 194 193 192 195 195 190 188 194 195 191 202 192 186 193 195 192 186 187 190 187 188
174 172 183 190 178 154 148 156 157 161 175 186 189 185 195 190 183 190 204 204 200 197 201 203 200 203 203 196 194 203 194 197 205 198 191 199 189 190 193 188 186 191 186
171 171 167 154 152 161 165 170 169 173 183 179 176 184 184 173 178 198 208 203 203 205 206 204 207 211 210 202 200 208 205 202 205 203 198 207 194 194 196 194 202 204 200
154 150 152 160 169 177 181 183 180 184 180 163 157 155 168 173 188 203 204 195 202 209 206 203 209 213 211 208 210 210 211 211 209 204 203 207 192 202 201 201 206 207 205
155 161 172 176 180 178 180 186 192 180 167 159 159 167 184 189 196 202 207 202 199 203 209 210 210 211 210 210 211 210 217 218 215 211 209 207 200 202 199 202 205 199 197
156 170 180 179 175 171 176 180 181 167 160 158 163 188 192 190 179 181 207 213 209 216 217 218 221 224 220 217 207 207 213 215 218 218 215 213 211 210 204 201 198 192 195
171 174 171 170 177 181 179 175 176 170 153 157 176 178 170 174 175 190 199 207 234 233 223 230 224 228 238 235 218 205 206 210 212 220 225 223 219 218 215 217 208 198 198
176 180 195 194 186 187 176 177 178 163 155 166 175 169 164 176 199 209 200 226 234 235 236 234 229 236 246 235 224 210 203 209 213 215 218 228 224 214 213 219 218 220 223
186 188 197 198 197 168 149 157 155 150 156 166 177 174 166 177 196 210 237 243 239 238 242 239 234 238 250 239 225 212 202 212 219 216 213 216 223 214 206 208 218 233 236
175 176 178 154 134 134 144 135 133 139 153 176 193 196 190 189 202 233 255 260 248 252 250 251 238 235 251 240 228 204 196 211 226 223 214 211 218 221 206 200 218 243 258
79 100 90 91 102 115 130 130 133 132 168 202 217 214 199 198 216 231 246 250 241 252 260 264 251 238 241 237 220 197 188 208 229 233 228 222 220 220 205 204 209 230 247
74 96 93 92 105 118 120 127 130 168 215 205 213 216 199 212 219 226 239 251 252 270 271 278 283 261 250 235 211 202 197 205 220 233 239 237 226 225 217 215 217 227 235
81 101 97 65 51 91 111 122 181 233 152 96 72 353 284 266 267 252 296 278 217 250 273 289 309 302 285 253 227 218 224 215 213 237 243 242 231 225 221 220 228 230 225
92 92 98 64 29 57 117 150 256 225 111 96 88 1 18 31 40 196 281 325 283 248 275 271 283 293 294 274 253 230 232 228 227 245 247 244 236 230 225 230 232 219 206
93 91 91 73 14 355 12 205 210 159 129 122 103 49 62 18 8 28 193 249 257 254 266 270 276 290 293 283 276 268 253 245 251 260 256 246 237 232 237 241 233 218 212
73 101 114 95 354 342 338 334 157 120 112 115 96 69 214 217 291 302 260 239 239 220 224 242 242 257 277 269 246 232 248 244 242 249 272 268 247 233 236 241 236 220 209
112 107 93 89 2 360 344 343 330 141 137 129 116 192 281 297 312 325 325 301 258 265 243 234 232 247 252 271 269 250 248 242 199 166 248 251 239 232 232 234 237 224 218